Location: La Pernelle
(49.6188°N, 1.2999°W)
Time: 07:45:29
(UTC+00:00)

Cosmos 2360 Rocket - Pass Details

Date: 12 June 2021
Orbit: 835 x 843 km, 71.0° (Epoch: 26 July)

Event Time Altitude Azimuth Distance (km) Brightness Sun altitude
Exits shadow 22:47:09 12° 206° (SSW) 2,329 4.1 -15.1°
Maximum altitude 22:52:28 88° 120° (ESE) 847 2.2 -15.4°
Drops below altitude 10° 22:58:08 10° 29° (NNE) 2,463 5.3 -15.7°
Sets 23:00:35 0° 30° (NNE) 3,400 6.1 -15.8°
